Location: Joplin, MO
(37.0842°N, 94.5133°W)
Time: 21:47:16
(UTC+02:00)

Transit 2A Rocket - Pass Details

Date: 26 March 2023
Orbit: 584 x 914 km, 66.7° (Epoch: 06 June)

Event Time Altitude Azimuth Distance (km) Brightness Sun altitude
Rises 17:52:43 0° 169° (S) 3,157 8.7 40.9°
Reaches altitude 10° 17:55:28 10° 154° (SSE) 2,299 8.4 41.3°
Maximum altitude 17:59:28 22° 105° (ESE) 1,701 8.1 41.9°
Drops below altitude 10° 18:03:43 10° 56° (NE) 2,471 7.9 42.6°
Sets 18:06:47 0° 42° (NE) 3,461 8.4 43.1°
